Regional Weather Roundup
Issued by NWS

Home | Current Version | Previous Version | Graphics & Text | Print | Product List | Glossary On
Versions: 1 2 3 4 5 6 7 8 9 10 11 12 13 14 15 16 17 18 19 20 21 22 23 24 25 26 27 28 29 30 31 32 33 34 35 36 37 38 39 40 41 42 43 44 45 46 47 48 49 50
000
ASUS43 KTOP 281908
RWRKS

WEATHER ROUNDUP FOR KANSAS
NATIONAL WEATHER SERVICE GOODLAND KS
200 PM CDT THU APR 28 2016

NOTE:  "FAIR" INDICATES FEW OR NO CLOUDS BELOW 12,000 FEET WITH NO
SIGNIFICANT WEATHER AND/OR OBSTRUCTIONS TO VISIBILITY.

KSZ001>006-013>018-027>032-041>047-282000-
NORTHWEST KANSAS

CITY           SKY/WX    TMP DP  RH WIND       PRES   REMARKS
GOODLAND       CLOUDY    47  31  53 NE10      29.99F
HAYS           SUNNY     54  34  47 N9        30.00S
HILL CITY      CLOUDY    51  36  56 N9        30.02S
RUSSELL        PTSUNNY   54  39  57 N10       29.99S
$$

KSZ061>065-074>080-084>089-282000-
SOUTHWEST KANSAS

CITY           SKY/WX    TMP DP  RH WIND       PRES   REMARKS
DODGE CITY     PTSUNNY   55  33  43 N15G22    29.98F
ELKHART          N/A     55  35  47 NE7         N/A
GARDEN CITY    PTSUNNY   53  34  48 NE15G22   29.97F
GREAT BEND     CLOUDY    55  36  47 N10       30.00F
LIBERAL        PTSUNNY   59  36  41 E12G17    29.98S
PRATT          PTSUNNY   56  35  44 NE9       29.98F
$$

KSZ066>073-081>083-090>101-282000-
SOUTHEAST KANSAS

CITY           SKY/WX    TMP DP  RH WIND       PRES   REMARKS
CHANUTE        CLOUDY    63  45  51 N7        29.97S
COFFEYVILLE    SUNNY     64  43  46 W5        29.97F
HUTCHINSON     SUNNY     61  38  42 N9        29.99F
MEDICINE LODGE   N/A     65  38  36 NE10      29.97F
NEWTON         SUNNY     61  41  48 N8        30.01S
PARSONS        SUNNY     64  46  52 N6        29.98F
WICHITA INTL   MOSUNNY   62  42  47 N9        29.98F
WICHITA JABRA  SUNNY     62  43  49 NW6       29.98F
WICHITA MCCONL MOSUNNY   61  43  51 N6        29.98F
WINFIELD       SUNNY     61  43  51 NE3       29.99F
$$

KSZ007>012-019>026-033>040-048>060-102>105-282000-
NORTHEAST KANSAS

CITY           SKY/WX    TMP DP  RH WIND       PRES   REMARKS
CONCORDIA      CLOUDY    53  42  66 NW12      30.00S
EMPORIA        CLOUDY    59  44  57 NW12      29.97F
LAWRENCE       PTSUNNY   58  47  66 NW13      29.97R
MANHATTAN      MOSUNNY   58  43  57 NW8       29.99S
MARYSVILLE     CLOUDY    52  43  71 NW9       29.99S
OLATHE IND     MOSUNNY   60  48  64 W12       29.97R
OLATHE EXE     MOSUNNY   59  47  64 W8        29.95S
SALINA         MOSUNNY   59  43  55 NW12      29.99F
TOPEKA BILLARD CLOUDY    57  45  64 NW12      29.98R
TOPEKA FORBES  MOSUNNY   58  45  62 NW13G20   29.98R
$$




USA.gov is the U.S. government's official web portal to all federal, state and local government web resources and services.